Regional Weather Roundup
Issued by NWS

Home | Current Version | Previous Version | Text Only | Print | Product List | Glossary Off
Versions: 1 2 3 4 5 6 7 8 9 10 11 12 13 14 15 16 17 18 19 20 21 22 23 24 25 26 27 28 29 30 31 32 33 34 35 36 37 38 39 40 41 42 43 44 45 46 47 48 49 50

392
ASUS43 KFSD 080710
RWRSD

WEATHER ROUNDUP FOR SOUTH DAKOTA
NATIONAL WEATHER SERVICE SIOUX FALLS SD
100 AM CST MON FEB 08 2016

NOTE: "FAIR" INDICATES FEW OR NO CLOUDS BELOW 12,000 FEET WITH NO
SIGNIFICANT WEATHER AND/OR OBSTRUCTIONS TO VISIBILITY.


SDZ001>005-009-010-012>017-080800-
NORTHWEST AND NORTH CENTRAL SOUTH DAKOTA

CITY           SKY/WX    TMP DP  RH WIND       PRES   REMARKS
BUFFALO          N/A     28  13  53 NW30G37   30.22S WCI  12
FAITH            N/A     27  15  61 NW26G36   30.23R WCI  12
MOBRIDGE       CLEAR     29  17  61 NW23G30   30.14R WCI  15
$$

SDZ012>016-024>037-041>051-057-063-072>074-080800-
SOUTHWEST AND SOUTH CENTRAL SOUTH DAKOTA

CITY           SKY/WX    TMP DP  RH WIND       PRES   REMARKS
RAPID CTY ARPT CLEAR     30  10  43 NW26G37   30.29R WCI  16
PIERRE         CLEAR     30  17  58 NW21      30.17R WCI  17
CUSTER         CLEAR     22  -7  27 N21G31    30.22R WCI   6
ELLSWORTH AFB  CLEAR     29  11  46 NW26G32   30.27S WCI  14
PHILIP         CLEAR     31  17  56 NW24G32   30.25S WCI  17
PINE RIDGE     CLEAR     23   8  52 NW5       30.30F WCI  17
SPEARFISH      FAIR      27  10  50 W16G28    30.34S WCI  14
WINNER         FAIR      30  17  58 NW18      30.16S WCI  18
$$

SDZ004>011-016>023-039-040-080800-
NORTHEAST SOUTH DAKOTA

CITY           SKY/WX    TMP DP  RH WIND       PRES   REMARKS
ABERDEEN       CLOUDY    27  17  66 N24G32    30.07R WCI  12
WATERTOWN      LGT SNOW  19  13  77 N25G36    29.96S WCI   1
BROOKINGS      FLURRIES  19  14  81 N33G41    29.93F WCI  -1
SISSETON         N/A     17  13  84 N28G38    30.01R WCI  -2
$$

SDZ017-020-022-023-036>040-048>070-080800-
SOUTHEAST SOUTH DAKOTA

CITY           SKY/WX    TMP DP  RH WIND       PRES   REMARKS
SIOUX FALLS    CLOUDY    23  16  74 NW25G32   29.97S WCI   7
HURON          CLOUDY    28  20  71 N23G35    30.05S WCI  14
CHAMBERLAIN    CLOUDY    32  19  60 NW25G33   30.12R WCI  18
MITCHELL       PTCLDY    28  20  71 NW24G33   30.06S WCI  14
YANKTON        PTCLDY   N/A N/A N/A NW31G44   30.02R
$$

ABBREVIATIONS USED IN REMARKS
   TC - TEMPERATURE IN CELSIUS
  WCI - WIND CHILL INDEX
   HX - HEAT INDEX
  VSB - VISIBILITY





USA.gov is the U.S. government's official web portal to all federal, state and local government web resources and services.